• In Russia
  • List of Countries
  • For 7 days
  • Water Temperature
  • Satellite Maps
  • Weather Map
  • Weather Widgets
  • user-avatar
    Login

    Hourly Weather Igls

    Today, 27 March, Monday

    Time Temperature Precipitation Wind Pressure Humidity
    00:00 +2°C° 0 mm 1 mps 687 mmHg 95%
    01:00 +1°C° 0 mm 1 mps 687 mmHg 94%
    02:00 -1°C° 0 mm 2 mps 687 mmHg 93%
    03:00 -1°C° 0 mm 2 mps 687 mmHg 93%
    04:00 -1°C° 0 mm 2 mps 687 mmHg 93%
    05:00 +1°C° 0 mm 2 mps 687 mmHg 91%
    06:00 +1°C° 0 mm 2 mps 687 mmHg 90%
    07:00 +3°C° 0 mm 2 mps 688 mmHg 86%
    08:00 +6°C° 0 mm 1 mps 688 mmHg 82%
    09:00 +9°C° 0 mm 1 mps 688 mmHg 78%
    10:00 +11°C° 0 mm 1 mps 688 mmHg 74%
    11:00 +12°C° 0 mm 1 mps 688 mmHg 71%
    12:00 +13°C° 0 mm 1 mps 688 mmHg 68%
    13:00 +14°C° 0 mm 1 mps 688 mmHg 65%
    14:00 +14°C° 0 mm 1 mps 688 mmHg 67%
    15:00 +14°C° 0 mm 1 mps 688 mmHg 69%
    16:00 +14°C° 0 mm 1 mps 687 mmHg 70%
    17:00 +10°C° 0 mm 1 mps 687 mmHg 78%
    18:00 +6°C° 0 mm 0 mps 686 mmHg 86%
    19:00 +3°C° 0 mm 0 mps 686 mmHg 94%
    20:00 +4°C° 0 mm 1 mps 686 mmHg 94%
    21:00 +4°C° 0 mm 1 mps 686 mmHg 94%
    22:00 +4°C° 0 mm 1 mps 687 mmHg 94%
    23:00 +4°C° 0 mm 1 mps 687 mmHg 93%

    Tomorrow, 28 March, Tuesday

    Time Temperature Precipitation Wind Pressure Humidity
    00:00 +4°C° 0 mm 1 mps 687 mmHg 93%
    01:00 +4°C° 0 mm 1 mps 687 mmHg 93%
    02:00 +4°C° 0 mm 1 mps 687 mmHg 93%
    03:00 +3°C° 0 mm 1 mps 687 mmHg 92%
    04:00 +3°C° 0 mm 1 mps 687 mmHg 92%
    05:00 +4°C° 0 mm 1 mps 687 mmHg 90%
    06:00 +4°C° 0 mm 1 mps 687 mmHg 88%
    07:00 +5°C° 0 mm 1 mps 688 mmHg 85%
    08:00 +8°C° 0 mm 1 mps 688 mmHg 81%
    09:00 +10°C° 0 mm 1 mps 688 mmHg 76%
    10:00 +13°C° 0 mm 1 mps 689 mmHg 71%
    11:00 +14°C° 0 mm 1 mps 689 mmHg 69%
    12:00 +14°C° 0 mm 1 mps 689 mmHg 67%
    13:00 +15°C° 0 mm 1 mps 689 mmHg 65%
    14:00 +14°C° 0 mm 1 mps 689 mmHg 68%
    15:00 +14°C° 0 mm 1 mps 689 mmHg 71%
    16:00 +13°C° 0 mm 1 mps 689 mmHg 75%
    17:00 +12°C° 0 mm 1 mps 688 mmHg 81%
    18:00 +10°C° 0 mm 1 mps 688 mmHg 87%
    19:00 +8°C° 0 mm 1 mps 688 mmHg 93%
    20:00 +8°C° 0 mm 1 mps 688 mmHg 94%
    21:00 +7°C° 0 mm 1 mps 689 mmHg 95%
    22:00 +6°C° 0 mm 1 mps 689 mmHg 95%
    23:00 +7°C° 0 mm 1 mps 689 mmHg 95%

    Day after tomorrow, 29 March, Wednesday

    Time Temperature Precipitation Wind Pressure Humidity
    00:00 +7°C° 0 mm 1 mps 689 mmHg 95%
    01:00 +7°C° 0 mm 1 mps 690 mmHg 95%
    02:00 +7°C° 0 mm 1 mps 690 mmHg 95%
    03:00 +7°C° 0 mm 1 mps 690 mmHg 95%
    04:00 +6°C° 0 mm 1 mps 690 mmHg 95%
    05:00 +7°C° 0 mm 1 mps 690 mmHg 94%
    06:00 +7°C° 0 mm 1 mps 690 mmHg 93%
    07:00 +8°C° 0 mm 1 mps 691 mmHg 92%
    08:00 +9°C° 0 mm 1 mps 691 mmHg 85%
    09:00 +11°C° 0 mm 1 mps 691 mmHg 79%
    10:00 +13°C° 0 mm 1 mps 691 mmHg 72%
    11:00 +14°C° 0 mm 1 mps 691 mmHg 68%
    12:00 +15°C° 0 mm 1 mps 691 mmHg 65%
    13:00 +16°C° 0 mm 1 mps 691 mmHg 62%
    14:00 +15°C° 0 mm 1 mps 691 mmHg 64%
    15:00 +15°C° 0 mm 1 mps 690 mmHg 65%
    16:00 +15°C° 0 mm 1 mps 690 mmHg 67%
    17:00 +13°C° 0 mm 1 mps 690 mmHg 76%
    18:00 +11°C° 0 mm 1 mps 690 mmHg 85%
    19:00 +9°C° 0 mm 1 mps 689 mmHg 94%
    20:00 +8°C° 0 mm 1 mps 690 mmHg 94%
    21:00 +8°C° 0 mm 1 mps 690 mmHg 95%
    22:00 +7°C° 0 mm 1 mps 691 mmHg 96%
    23:00 +7°C° 0 mm 1 mps 691 mmHg 96%

    30 March, Thursday

    Time Temperature Precipitation Wind Pressure Humidity
    00:00 +7°C° 0 mm 1 mps 691 mmHg 96%
    01:00 +6°C° 0 mm 1 mps 691 mmHg 96%
    02:00 +5°C° 0 mm 1 mps 690 mmHg 95%
    03:00 +5°C° 0 mm 1 mps 690 mmHg 95%
    04:00 +4°C° 0 mm 1 mps 690 mmHg 95%
    05:00 +4°C° 0 mm 0 mps 690 mmHg 91%
    06:00 +5°C° 0 mm 0 mps 690 mmHg 88%
    07:00 +6°C° 0 mm 0 mps 691 mmHg 85%
    08:00 +9°C° 0 mm 0 mps 691 mmHg 76%
    09:00 +12°C° 0 mm 1 mps 691 mmHg 67%
    10:00 +15°C° 0 mm 1 mps 692 mmHg 58%
    11:00 +16°C° 0 mm 1 mps 692 mmHg 56%
    12:00 +16°C° 0 mm 1 mps 692 mmHg 54%
    13:00 +18°C° 0 mm 1 mps 692 mmHg 52%
    14:00 +18°C° 0 mm 1 mps 691 mmHg 54%
    15:00 +18°C° 0 mm 1 mps 691 mmHg 56%
    16:00 +16°C° 0 mm 1 mps 691 mmHg 59%
    17:00 +13°C° 0 mm 1 mps 690 mmHg 69%
    18:00 +10°C° 0 mm 1 mps 689 mmHg 79%
    19:00 +7°C° 0 mm 1 mps 689 mmHg 89%
    20:00 +8°C° 0 mm 1 mps 689 mmHg 89%
    21:00 +8°C° 0 mm 1 mps 689 mmHg 88%
    22:00 +7°C° 0 mm 2 mps 690 mmHg 88%
    23:00 +6°C° 0 mm 2 mps 690 mmHg 88%

    31 March, Friday

    Time Temperature Precipitation Wind Pressure Humidity
    00:00 +6°C° 0 mm 2 mps 690 mmHg 88%
    01:00 +6°C° 0 mm 2 mps 689 mmHg 88%
    02:00 +6°C° 0 mm 2 mps 689 mmHg 89%
    03:00 +6°C° 0 mm 2 mps 689 mmHg 90%
    04:00 +6°C° 0 mm 2 mps 689 mmHg 90%
    05:00 +6°C° 0 mm 2 mps 689 mmHg 89%
    06:00 +7°C° 0 mm 2 mps 689 mmHg 88%
    07:00 +7°C° 0 mm 2 mps 689 mmHg 87%
    08:00 +10°C° 0 mm 2 mps 689 mmHg 77%
    09:00 +13°C° 0 mm 1 mps 689 mmHg 67%
    10:00 +16°C° 0 mm 1 mps 689 mmHg 57%
    11:00 +18°C° 0 mm 1 mps 688 mmHg 54%
    12:00 +19°C° 0 mm 1 mps 688 mmHg 50%
    13:00 +18°C° 0 mm 2 mps 688 mmHg 46%
    14:00 +18°C° 0 mm 2 mps 687 mmHg 49%
    15:00 +18°C° 0 mm 2 mps 687 mmHg 51%
    16:00 +17°C° 0 mm 2 mps 686 mmHg 54%
    17:00 +14°C° 0 mm 2 mps 686 mmHg 66%
    18:00 +11°C° 0 mm 1 mps 685 mmHg 79%
    19:00 +9°C° 0 mm 1 mps 684 mmHg 91%
    20:00 +7°C° 0 mm 2 mps 684 mmHg 91%
    21:00 +7°C° 0 mm 2 mps 684 mmHg 91%
    22:00 +7°C° 0 mm 2 mps 685 mmHg 91%
    23:00 +7°C° 0 mm 2 mps 684 mmHg 91%

    1 April, Saturday

    Time Temperature Precipitation Wind Pressure Humidity
    00:00 +7°C° 0 mm 2 mps 684 mmHg 91%
    01:00 +6°C° 0 mm 2 mps 684 mmHg 91%
    02:00 +6°C° 0 mm 2 mps 684 mmHg 91%
    03:00 +6°C° 0 mm 2 mps 683 mmHg 90%
    04:00 +5°C° 0 mm 2 mps 683 mmHg 90%
    05:00 +6°C° 0 mm 2 mps 683 mmHg 88%
    06:00 +6°C° 0 mm 2 mps 683 mmHg 85%
    07:00 +6°C° 0 mm 2 mps 683 mmHg 82%
    08:00 +9°C° 0 mm 2 mps 684 mmHg 73%
    09:00 +12°C° 0 mm 1 mps 684 mmHg 63%
    10:00 +15°C° 0 mm 1 mps 684 mmHg 53%
    11:00 +15°C° 0 mm 1 mps 684 mmHg 52%
    12:00 +16°C° 0 mm 2 mps 684 mmHg 50%
    13:00 +17°C° 0 mm 2 mps 684 mmHg 49%
    14:00 +16°C° 0.1 mm 2 mps 684 mmHg 53%
    15:00 +16°C° 0.1 mm 2 mps 683 mmHg 57%
    16:00 +16°C° 0.1 mm 2 mps 683 mmHg 61%
    17:00 +13°C° 0.4 mm 2 mps 683 mmHg 71%
    18:00 +11°C° 0.4 mm 1 mps 682 mmHg 82%
    19:00 +9°C° 0.4 mm 1 mps 682 mmHg 92%
    20:00 +8°C° 0.4 mm 1 mps 683 mmHg 92%
    21:00 +8°C° 0.4 mm 1 mps 683 mmHg 93%
    22:00 +8°C° 0.4 mm 1 mps 683 mmHg 93%
    23:00 +7°C° 0.1 mm 1 mps 684 mmHg 93%
    Show more